| time (UTC) | temp F | wind direction | speed knots | gust knots | rain 1hr in | rain 24hr in | rain mn in | humidity % | barometer mb |
| 20260504044216 | 67 | 1 | 6.1 | 11.3 | 0.00 | 0.28 | 0.28 | 82 | 1014.3 |
| 20260504042715 | 66 | 359 | 5.2 | 8.7 | 0.01 | 0.28 | 0.28 | 88 | 1014.4 |
| 20260504042215 | 66 | 2 | 2.6 | 7.0 | 0.01 | 0.28 | 0.28 | 89 | 1014.3 |
| 20260504041715 | 65 | 355 | 5.2 | 8.7 | 0.02 | 0.28 | 0.28 | 89 | 1014.6 |
| 20260504041216 | 65 | 2 | 6.1 | 10.4 | 0.04 | 0.28 | 0.28 | 90 | 1014.4 |
| 20260504040715 | 64 | 16 | 7.0 | 10.4 | 0.05 | 0.28 | 0.28 | 90 | 1014.5 |
| 20260504040216 | 64 | 23 | 7.8 | 11.3 | 0.07 | 0.28 | 0.28 | 90 | 1014.3 |
| 20260504035715 | 64 | 14 | 8.7 | 12.2 | 0.08 | 0.28 | 0.28 | 90 | 1014.4 |
| 20260504035215 | 64 | 2 | 9.6 | 13.0 | 0.10 | 0.28 | 0.28 | 90 | 1014.7 |
| 20260504034715 | 63 | 6 | 9.6 | 13.0 | 0.12 | 0.28 | 0.28 | 91 | 1014.7 |
| 20260504034215 | 63 | 14 | 10.4 | 13.9 | 0.12 | 0.28 | 0.28 | 91 | 1014.5 |
| 20260504033715 | 63 | 10 | 9.6 | 13.0 | 0.12 | 0.28 | 0.28 | 91 | 1015.0 |
| 20260504033216 | 63 | 4 | 7.8 | 13.9 | 0.12 | 0.27 | 0.27 | 91 | 1015.0 |
| 20260504032716 | 63 | 1 | 10.4 | 14.8 | 0.13 | 0.27 | 0.27 | 91 | 1015.3 |
| 20260504032215 | 63 | 2 | 11.3 | 14.8 | 0.13 | 0.27 | 0.27 | 91 | 1015.2 |
| 20260504031715 | 63 | 3 | 9.6 | 15.6 | 0.13 | 0.26 | 0.26 | 91 | 1015.4 |
| 20260504031216 | 63 | 354 | 7.0 | 13.0 | 0.12 | 0.24 | 0.24 | 91 | 1015.6 |
| 20260504030715 | 63 | 5 | 10.4 | 13.9 | 0.12 | 0.23 | 0.23 | 91 | 1015.6 |
| 20260504030215 | 63 | 0 | 9.6 | 13.0 | 0.11 | 0.21 | 0.21 | 90 | 1015.9 |
| 20260504025215 | 63 | 353 | 8.7 | 12.2 | 0.08 | 0.18 | 0.18 | 90 | 1016.1 |
| 20260504024215 | 64 | 10 | 7.8 | 12.2 | 0.07 | 0.16 | 0.16 | 90 | 1016.1 |
| 20260504023715 | 64 | 7 | 7.0 | 10.4 | 0.08 | 0.16 | 0.16 | 90 | 1016.3 |
| 20260504023215 | 64 | 0 | 6.1 | 7.8 | 0.09 | 0.15 | 0.15 | 89 | 1016.3 |
| 20260504022715 | 64 | 338 | 6.1 | 7.8 | 0.09 | 0.14 | 0.14 | 89 | 1016.5 |
| 20260504021715 | 64 | 333 | 2.6 | 4.3 | 0.10 | 0.13 | 0.13 | 89 | 1016.5 |
| 20260504020715 | 64 | 312 | 5.2 | 7.8 | 0.08 | 0.11 | 0.11 | 88 | 1016.9 |
| 20260504020215 | 64 | 313 | 5.2 | 6.1 | 0.08 | 0.10 | 0.10 | 88 | 1017.1 |
| 20260504015715 | 64 | 328 | 5.2 | 6.1 | 0.08 | 0.10 | 0.10 | 87 | 1017.1 |
| 20260504015215 | 64 | 325 | 3.5 | 6.1 | 0.08 | 0.10 | 0.10 | 87 | 1017.1 |
| 20260504014715 | 64 | 320 | 4.3 | 6.1 | 0.07 | 0.09 | 0.09 | 86 | 1017.2 |
| 20260504013715 | 64 | 323 | 4.3 | 7.0 | 0.06 | 0.08 | 0.08 | 86 | 1017.3 |
| 20260504013214 | 64 | 330 | 4.3 | 7.0 | 0.04 | 0.06 | 0.06 | 85 | 1017.5 |
| 20260504012715 | 64 | 329 | 6.1 | 7.0 | 0.03 | 0.05 | 0.05 | 85 | 1017.4 |
| 20260504012215 | 65 | 346 | 4.3 | 6.1 | 0.02 | 0.04 | 0.04 | 85 | 1017.5 |
| 20260504011715 | 65 | 330 | 4.3 | 5.2 | 0.01 | 0.03 | 0.03 | 85 | 1017.5 |
| 20260504011215 | 65 | 351 | 2.6 | 4.3 | 0.01 | 0.03 | 0.03 | 85 | 1017.5 |
| 20260504010715 | 65 | 298 | 3.5 | 7.0 | 0.02 | 0.03 | 0.03 | 84 | 1017.5 |
| 20260504010215 | 65 | 309 | 4.3 | 5.2 | 0.01 | 0.02 | 0.02 | 84 | 1017.6 |
| 20260504005215 | 65 | 222 | 4.3 | 5.2 | 0.02 | 0.02 | 0.02 | 84 | 1017.4 |
| 20260504004714 | 65 | 220 | 2.6 | 4.3 | 0.02 | 0.02 | 0.02 | 84 | 1017.4 |
| 20260504003214 | 65 | 270 | 0.0 | 2.6 | 0.02 | 0.02 | 0.02 | 83 | 1017.4 |
| 20260504002715 | 65 | 267 | 2.6 | 4.3 | 0.02 | 0.02 | 0.02 | 84 | 1017.6 |
| 20260504002215 | 64 | 281 | 3.5 | 5.2 | 0.02 | 0.02 | 0.02 | 83 | 1017.4 |
| 20260504001715 | 64 | 311 | 2.6 | 4.3 | 0.02 | 0.02 | 0.02 | 82 | 1017.5 |
| 20260504001215 | 64 | 334 | 2.6 | 6.1 | 0.02 | 0.02 | 0.02 | 82 | 1017.3 |
| 20260503235715 | 64 | 337 | 5.2 | 7.8 | 0.00 | 0.00 | 0.00 | 80 | 1017.8 |
| 20260503235215 | 65 | 321 | 6.1 | 8.7 | 0.00 | 0.00 | 0.00 | 80 | 1017.9 |
| 20260503234715 | 65 | 324 | 7.8 | 8.7 | 0.00 | 0.00 | 0.00 | 80 | 1017.8 |
| 20260503234214 | 65 | 298 | 7.0 | 11.3 | 0.00 | 0.00 | 0.00 | 81 | 1017.7 |
| 20260503233715 | 65 | 324 | 9.6 | 13.9 | 0.00 | 0.00 | 0.00 | 80 | 1018.0 |
| 20260503232215 | 65 | 298 | 10.4 | 13.0 | 0.00 | 0.00 | 0.00 | 81 | 1018.1 |
| 20260503231715 | 65 | 290 | 10.4 | 13.0 | 0.00 | 0.00 | 0.00 | 81 | 1017.9 |
| 20260503230715 | 65 | 301 | 7.8 | 10.4 | 0.00 | 0.00 | 0.00 | 82 | 1017.7 |
| 20260503230215 | 65 | 301 | 6.1 | 10.4 | 0.00 | 0.00 | 0.00 | 82 | 1017.5 |
| 20260503225715 | 65 | 300 | 6.1 | 8.7 | 0.00 | 0.00 | 0.00 | 82 | 1017.6 |
| 20260503225214 | 65 | 312 | 7.0 | 7.8 | 0.00 | 0.00 | 0.00 | 82 | 1017.3 |
| 20260503224715 | 65 | 327 | 6.1 | 7.8 | 0.00 | 0.00 | 0.00 | 82 | 1017.4 |
| 20260503224215 | 65 | 325 | 5.2 | 7.8 | 0.00 | 0.00 | 0.00 | 82 | 1017.2 |
| 20260503223715 | 65 | 332 | 5.2 | 7.0 | 0.00 | 0.00 | 0.00 | 83 | 1017.1 |
| 20260503223214 | 65 | 335 | 4.3 | 6.1 | 0.00 | 0.00 | 0.00 | 83 | 1016.9 |
| 20260503222715 | 65 | 328 | 3.5 | 5.2 | 0.00 | 0.00 | 0.00 | 84 | 1017.1 |
| 20260503222215 | 65 | 315 | 5.2 | 6.1 | 0.00 | 0.00 | 0.00 | 84 | 1016.9 |
| 20260503221714 | 65 | 320 | 3.5 | 5.2 | 0.00 | 0.00 | 0.00 | 84 | 1016.8 |
| 20260503220714 | 64 | 301 | 5.2 | 7.8 | 0.00 | 0.00 | 0.00 | 83 | 1016.8 |
| 20260503220215 | 64 | 312 | 4.3 | 8.7 | 0.00 | 0.00 | 0.00 | 84 | 1016.9 |
| 20260503215214 | 64 | 303 | 7.8 | 11.3 | 0.00 | 0.00 | 0.00 | 83 | 1017.0 |
| 20260503214714 | 65 | 299 | 7.0 | 10.4 | 0.00 | 0.00 | 0.00 | 83 | 1016.9 |
| 20260503214214 | 65 | 313 | 4.3 | 7.0 | 0.00 | 0.00 | 0.00 | 84 | 1016.7 |
| 20260503213715 | 65 | 320 | 5.2 | 7.0 | 0.00 | 0.00 | 0.00 | 83 | 1016.7 |
| 20260503213215 | 65 | 323 | 6.1 | 7.8 | 0.00 | 0.00 | 0.00 | 84 | 1016.7 |
| 20260503212715 | 65 | 325 | 6.1 | 7.0 | 0.00 | 0.00 | 0.00 | 84 | 1016.6 |
| 20260503212214 | 64 | 328 | 4.3 | 6.1 | 0.00 | 0.00 | 0.00 | 83 | 1016.7 |
| 20260503211714 | 64 | 323 | 5.2 | 7.0 | 0.00 | 0.00 | 0.00 | 83 | 1016.5 |
| 20260503211214 | 64 | 330 | 5.2 | 7.0 | 0.00 | 0.00 | 0.00 | 83 | 1016.5 |
| 20260503210214 | 64 | 327 | 4.3 | 6.1 | 0.00 | 0.00 | 0.00 | 83 | 1016.4 |
| 20260503205214 | 64 | 315 | 4.3 | 5.2 | 0.00 | 0.00 | 0.00 | 83 | 1016.3 |
| 20260503204715 | 64 | 321 | 5.2 | 6.1 | 0.00 | 0.00 | 0.00 | 83 | 1016.4 |
| 20260503204214 | 64 | 325 | 5.2 | 6.1 | 0.00 | 0.00 | 0.00 | 83 | 1016.4 |
| 20260503203715 | 64 | 322 | 4.3 | 6.1 | 0.00 | 0.00 | 0.00 | 83 | 1016.4 |
| 20260503203214 | 64 | 319 | 3.5 | 6.1 | 0.00 | 0.00 | 0.00 | 82 | 1016.1 |
| 20260503202714 | 64 | 329 | 4.3 | 6.1 | 0.00 | 0.00 | 0.00 | 82 | 1016.1 |
| 20260503202214 | 64 | 323 | 6.1 | 7.0 | 0.00 | 0.00 | 0.00 | 82 | 1016.0 |
| 20260503201214 | 65 | 326 | 4.3 | 6.1 | 0.00 | 0.00 | 0.00 | 82 | 1016.0 |
| 20260503200715 | 65 | 326 | 4.3 | 5.2 | 0.00 | 0.00 | 0.00 | 82 | 1015.9 |
| 20260503195714 | 65 | 329 | 4.3 | 5.2 | 0.00 | 0.00 | 0.00 | 82 | 1015.9 |
| 20260503194714 | 65 | 351 | 4.3 | 4.3 | 0.00 | 0.00 | 0.00 | 82 | 1015.8 |
| 20260503194214 | 66 | 349 | 2.6 | 5.2 | 0.00 | 0.00 | 0.00 | 82 | 1015.7 |
| 20260503193714 | 66 | 350 | 2.6 | 5.2 | 0.00 | 0.00 | 0.00 | 82 | 1015.7 |
| 20260503193215 | 66 | 346 | 4.3 | 5.2 | 0.00 | 0.00 | 0.00 | 82 | 1015.7 |
| 20260503192715 | 66 | 343 | 4.3 | 7.0 | 0.00 | 0.00 | 0.00 | 82 | 1015.7 |
| 20260503192214 | 66 | 354 | 4.3 | 7.0 | 0.00 | 0.00 | 0.00 | 81 | 1015.6 |
| 20260503191714 | 66 | 0 | 5.2 | 7.8 | 0.00 | 0.00 | 0.00 | 81 | 1015.7 |
| 20260503191215 | 66 | 0 | 4.3 | 5.2 | 0.00 | 0.00 | 0.00 | 81 | 1015.5 |
| 20260503190715 | 66 | 356 | 4.3 | 6.1 | 0.00 | 0.00 | 0.00 | 81 | 1015.5 |
| 20260503190214 | 66 | 350 | 5.2 | 7.0 | 0.00 | 0.00 | 0.00 | 80 | 1015.6 |
| 20260503185715 | 66 | 351 | 4.3 | 7.0 | 0.00 | 0.00 | 0.00 | 80 | 1015.7 |
| 20260503185214 | 66 | 358 | 5.2 | 7.8 | 0.00 | 0.00 | 0.00 | 80 | 1015.5 |
| 20260503184714 | 66 | 3 | 5.2 | 7.0 | 0.00 | 0.00 | 0.00 | 80 | 1015.7 |
| 20260503184215 | 66 | 358 | 5.2 | 7.0 | 0.00 | 0.00 | 0.00 | 80 | 1015.9 |
| 20260503183715 | 66 | 0 | 4.3 | 7.0 | 0.00 | 0.00 | 0.00 | 80 | 1015.7 |
| 20260503183215 | 66 | 358 | 5.2 | 7.0 | 0.00 | 0.00 | 0.00 | 80 | 1015.7 |
| 20260503182714 | 66 | 0 | 5.2 | 7.0 | 0.00 | 0.00 | 0.00 | 80 | 1015.9 |
| 20260503181714 | 66 | 5 | 6.1 | 7.8 | 0.00 | 0.00 | 0.00 | 80 | 1015.5 |
| 20260503181215 | 66 | 11 | 5.2 | 7.8 | 0.00 | 0.00 | 0.00 | 80 | 1015.8 |
| 20260503180715 | 66 | 2 | 4.3 | 6.1 | 0.00 | 0.00 | 0.00 | 80 | 1015.8 |
| 20260503180215 | 66 | 2 | 5.2 | 7.8 | 0.00 | 0.00 | 0.00 | 80 | 1015.7 |
| 20260503175715 | 66 | 3 | 6.1 | 7.8 | 0.00 | 0.00 | 0.00 | 80 | 1015.7 |
| 20260503175214 | 66 | 4 | 6.1 | 7.8 | 0.00 | 0.00 | 0.00 | 80 | 1015.7 |
| 20260503174714 | 66 | 9 | 6.1 | 7.8 | 0.00 | 0.00 | 0.00 | 79 | 1015.7 |
| 20260503174214 | 66 | 8 | 5.2 | 8.7 | 0.00 | 0.00 | 0.00 | 79 | 1015.8 |
| 20260503173214 | 66 | 9 | 7.0 | 8.7 | 0.00 | 0.00 | 0.00 | 80 | 1015.7 |
| 20260503172714 | 66 | 7 | 6.1 | 7.8 | 0.00 | 0.00 | 0.00 | 80 | 1015.8 |
| 20260503172214 | 66 | 7 | 5.2 | 6.1 | 0.00 | 0.00 | 0.00 | 80 | 1015.9 |
| 20260503171215 | 66 | 0 | 3.5 | 4.3 | 0.00 | 0.00 | 0.00 | 80 | 1016.2 |
| 20260503170715 | 66 | 0 | 3.5 | 4.3 | 0.00 | 0.00 | 0.00 | 80 | 1016.2 |
| 20260503170214 | 66 | 1 | 2.6 | 5.2 | 0.00 | 0.00 | 0.00 | 80 | 1016.1 |
| 20260503160214 | 67 | 2 | 6.1 | 8.7 | 0.00 | 0.00 | 0.00 | 76 | 1016.6 |
| 20260503150713 | 67 | 0 | 5.2 | 7.0 | 0.00 | 0.00 | 0.00 | 80 | 1017.0 |
| 20260503140214 | 67 | 330 | 5.2 | 6.1 | 0.00 | 0.00 | 0.00 | 79 | 1017.7 |
| 20260503131214 | 68 | 5 | 6.1 | 11.3 | 0.00 | 0.00 | 0.00 | 80 | 1017.9 |
| 20260503130713 | 69 | 356 | 7.0 | 10.4 | 0.00 | 0.00 | 0.00 | 80 | 1018.0 |
| 20260503130213 | 69 | 356 | 6.1 | 8.7 | 0.00 | 0.00 | 0.00 | 80 | 1018.0 |
| 20260503120214 | 69 | 4 | 6.1 | 12.2 | 0.00 | 0.00 | 0.00 | 81 | 1018.7 |
| 20260503110714 | 70 | 10 | 11.3 | 15.6 | 0.00 | 0.00 | 0.00 | 78 | 1018.5 |
| 20260503110213 | 70 | 11 | 10.4 | 20.0 | 0.00 | 0.00 | 0.00 | 78 | 1018.6 |
| 20260503090213 | 70 | 16 | 13.0 | 21.7 | 0.00 | 0.00 | 0.00 | 77 | 1018.1 |
| 20260503081213 | 71 | 23 | 13.9 | 19.1 | 0.00 | 0.00 | 0.00 | 74 | 1018.1 |
| 20260503080713 | 71 | 18 | 11.3 | 14.8 | 0.00 | 0.00 | 0.00 | 74 | 1018.2 |
| 20260503080213 | 71 | 26 | 14.8 | 19.1 | 0.00 | 0.00 | 0.00 | 73 | 1018.3 |
| 20260503072213 | 71 | 21 | 8.7 | 15.6 | 0.00 | 0.00 | 0.00 | 72 | 1018.1 |
| 20260503071713 | 71 | 24 | 12.2 | 18.2 | 0.00 | 0.00 | 0.00 | 72 | 1018.0 |
| 20260503071213 | 71 | 27 | 13.9 | 20.9 | 0.00 | 0.00 | 0.00 | 72 | 1018.2 |
| 20260503070713 | 71 | 25 | 13.0 | 19.1 | 0.00 | 0.00 | 0.00 | 71 | 1018.0 |
| 20260503070213 | 71 | 25 | 11.3 | 19.1 | 0.00 | 0.00 | 0.00 | 71 | 1018.1 |
| 20260503060212 | 71 | 33 | 20.9 | 22.6 | 0.00 | 0.00 | 0.00 | 70 | 1018.2 |
| 20260503054713 | 71 | 37 | 20.9 | 24.3 | 0.00 | 0.00 | 0.00 | 71 | 1018.2 |
| 20260503054213 | 71 | 35 | 20.9 | 22.6 | 0.00 | 0.00 | 0.00 | 71 | 1018.3 |
| 20260503053713 | 71 | 33 | 21.7 | 24.3 | 0.00 | 0.00 | 0.00 | 70 | 1018.3 |
| 20260503053213 | 71 | 36 | 20.9 | 25.2 | 0.00 | 0.00 | 0.00 | 71 | 1018.3 |
| 20260503052713 | 71 | 36 | 20.9 | 24.3 | 0.00 | 0.00 | 0.00 | 70 | 1018.4 |
| 20260503052213 | 71 | 37 | 21.7 | 24.3 | 0.00 | 0.00 | 0.00 | 70 | 1018.4 |
| 20260503051713 | 72 | 40 | 19.1 | 22.6 | 0.00 | 0.00 | 0.00 | 69 | 1018.5 |
| 20260503051213 | 71 | 32 | 19.1 | 22.6 | 0.00 | 0.00 | 0.00 | 69 | 1018.4 |
| 20260503050713 | 71 | 39 | 20.9 | 22.6 | 0.00 | 0.00 | 0.00 | 69 | 1018.5 |
| 20260503045713 | 71 | 39 | 20.0 | 22.6 | 0.00 | 0.00 | 0.00 | 69 | 1018.5 |
| 20260503044712 | 71 | 34 | 19.1 | 21.7 | 0.00 | 0.00 | 0.00 | 69 | 1018.7 |